Location: Home
(42.5358°N, 72.7383°W)
Time: 12:08:30
(UTC-05:00)

Transit 2A Rocket - Pass Details

Date: 08 December 2021
Orbit: 584 x 918 km, 66.7° (Epoch: 22 January)

Event Time Altitude Azimuth Distance (km) Brightness Sun altitude
Rises 05:11:17 0° 174° (S) 3,281 8.5 -20.8°
Reaches altitude 10° 05:13:59 10° 162° (SSE) 2,410 8.0 -20.3°
Maximum altitude 05:18:33 26° 107° (ESE) 1,624 7.5 -19.5°
Drops below altitude 10° 05:23:23 10° 53° (NE) 2,567 8.2 -18.6°
Sets 05:26:19 0° 41° (NE) 3,539 8.8 -18.1°
